Northwest River Forecast Center River Conditions Summary
Enter Search Selection
  Forecast Points Only


Point Metadata CSV
Minutes since last post:1
Latency (Post Time - Latest Obs Time):10
Click on column header to sort on the field
#IDHSADescriptionStateCountyElevationObservation TimeStageDischargeStatus
0HOPI1OTXPEND OREILLE - PEND OREILLE LAKE NR HOPEIDBONNER20002022-06-30 18:00:002061.56 0
1OKNW1OTXOKANOGAN - AT OROVILLEWAOKANOGAN9002022-06-30 18:00:0028600
2MMRW1SEWWHITE - AT MUD MOUNTAIN DAMWAKING13302022-06-30 19:00:00945.87 0
3RODW1SEWSKAGIT - ROSS RESERVOIRWAWHATCOM16052022-06-30 19:00:001600.16 0
4WYDW1SEWWYNOOCHEE - WYNOOCHEE DAMWAGRAYS HARBOR8102022-06-30 19:00:00799.49 0
5HAHW1SEWGREEN - BELOW HOWARD HANSON DAMWAKING9902022-06-30 19:00:005.777670
6LRWW1PQRLEWIS - AT WOODLANDWACLARK102022-07-02 20:30:0012.19 0
7KEDW1PDTYAKIMA - KEECHELUS LAKEWAKITTITAS24792022-07-03 02:30:002516.82 0
8KADW1PDTKACHESS - KACHESS DAMWAKITTITAS22692022-07-03 02:30:002261.55 0
9PARW1PDTYAKIMA - NEAR PARKERWAYAKIMA8892022-07-03 02:30:003.317840
10NACW1PDTNACHES - NEAR NACHESWAYAKIMA15502022-07-03 02:45:0014.9822620
11EASW1PDTYAKIMA - AT EASTONWAKITTITAS21352022-07-03 03:00:0048.053090
12CLFW1PDTNACHES - NEAR CLIFFDELWAYAKIMA22802022-07-03 03:00:0028.6417160
13CLUW1PDTCLE ELUM - CLE ELUM LAKEWAKITTITAS22402022-07-03 03:15:002240 0
14LSTO3PDTLOSTINE - NR LOSTINEORWALLOWA36502022-07-03 05:15:006.0110000
15BRNI1BOISNAKE - BROWNLEE DAMIDADAMS18442022-07-03 06:00:002074.681 0
16NOXM8MSOCLARK FORK - NOXON RAPIDS DAMMTSANDERS22702022-07-03 07:00:002330.05 0
17LLKW1OTXSPOKANE - AT LONGLAKEWALINCOLN12992022-07-03 07:00:001535.75 0
18CABI1OTXCLARK FORK - CABINET GORGE DAMIDBONNER22602022-07-03 07:00:002173.23 0
19CHDW1OTXCHELAN - LAKE CHELAN DAMWACHELAN9952022-07-03 14:00:001098.67 0
20SCDO3PQRSCOGGINS CREEK - SCOGGINS DAMORWASHINGTON3062022-07-03 16:00:00302.72 0
21SCOO3PQRSCOGGINS CREEK - NEAR GASTONORWASHINGTON1572022-07-03 16:00:005.47800
22PHIO3PQRMARYS - NEAR PHILOMATHORBENTON2242022-07-03 18:00:003.81490
23ECDO3MFRELK CREEK - NEAR DRAINORDOUGLAS6892022-07-03 18:15:001.38560
24EGCO3PDTEAGLE CREEK - ABOVE SKULL CKORBAKER28002022-07-03 18:30:007440
25ALRW1SEWNISQUALLY - ALDER RESERVOIRWAPIERCE12102022-07-03 19:00:001205.43 0
26MSRW1SEWCOWLITZ - MOSSYROCK RESERVOIRWALEWIS6792022-07-03 19:00:00747.75 0
27MYDW1PQRCOWLITZ - MAYFIELD RESERVOIRWALEWIS2802022-07-03 19:00:00422.75 0
28WTHW1OTXMETHOW - AT WINTHROPWAOKANOGAN17182022-07-03 19:15:0013.435710
29COEI1OTXCOEUR D ALENE - COEUR D ALENE LAKEIDKOOTENAI21602022-07-03 19:30:002127.81 0
30SRCW1SEWSKOKOMISH - AT CONFLUENCEWAMASON542022-07-03 19:30:005490
31LSDW1OTXLITTLE SPOKANE - AT DARTFORDWASPOKANE15902022-07-03 19:45:002.892300
32WRAW1SEWWHITE - AT R STREETWAKING1152022-07-03 19:45:00112.5822670
33TRSO3PQRTHOMAS CREEK - NEAR SCIOORLINN3802022-07-03 19:45:005.161930
34JLKW4RIWSNAKE - JACKSON LAKE AT DAMWYTETON67282022-07-03 19:45:0024100
35RCCM8MSOROCK CREEK - NEAR CLINTONMTMISSOULA35192022-07-03 19:45:006.149820
36DEDI1BOIDEADWOOD - NEAR LOWMANIDVALLEY53342022-07-03 19:45:004.46 0
37IPDI1PIHHENRYS FORK - ISLAND PARK DAMIDFREMONT63022022-07-03 19:45:006302.61 0
38RIDI1PIHWILLOW CREEK - RIRIE DAMIDJEFFERSON51192022-07-03 19:45:005097.5 0
39HALI1PIHBIG WOOD - AT HAILEYIDBLAINE52952022-07-03 19:45:003.057750
40COCO3PQRCLACKAMAS - NEAR OREGON CITYORCLACKAMAS152022-07-03 19:45:0024.6219100
41NEWW1SEWNEWAUKUM - NEAR CHEHALISWALEWIS1902022-07-03 19:45:00193.551520
42CRPW1SEWCHEHALIS - AT PORTERWAGRAYS HARBOR242022-07-03 19:45:0032.5113690
43EASI1OTXMOYIE - AT EASTPORTIDBOUNDARY26202022-07-03 19:45:005.1510450
44LWRI1PIHLITTLE WOOD - LITTLE WOOD DAMIDBLAINE51002022-07-03 19:45:005234.25 0
45CSDI1BOINF PAYETTE - CASCADE DAMIDVALLEY48282022-07-03 19:45:004826.5 0
46SPRO3PQRMOHAWK - NEAR SPRINGFIELDORLANE4422022-07-03 19:45:002.032370
47PILW1SEWPILCHUCK - NEAR SNOHOMISHWASNOHOMISH02022-07-03 19:45:0010.362160
48RRHW1OTXCOLUMBIA - ROCKY REACH DAMWACHELAN7032022-07-03 20:00:00706.43 0
49TRYO3PDTGRANDE RONDE - TROYORWALLOWA15862022-07-03 20:00:006.1555630
50DWRI1MSONF CLEARWATER - DWORSHAK DAMIDCLEARWATER9952022-07-03 20:00:001599.81 0
51UBDW1SEWBAKER - UPPER BAKER LAKEWAWHATCOM3932022-07-03 20:00:00726.21 0
52HWRI1PIHBIG LOST - AT HOWELL RANCH NEAR CHILLYIDCUSTER66222022-07-03 20:00:002.387630
53SPDI1OTXCLEARWATER - AT SPALDINGIDNEZ PERCE7702022-07-03 20:00:008.13231680
54TRAO3PQRTRASK - TILLAMOOKORTILLAMOOK502022-07-03 20:00:006.452820
55RSBO3MFRS UMPQUA - AT ROSEBURGORDOUGLAS4142022-07-03 20:00:004.594760
56HOTI1BOIBRUNEAU - NEAR HOT SPRINGSIDOWYHEE25992022-07-03 20:00:005.182390
57SKOW1SEWNF SKOKOMISH - BELOW STAIRCASE RAPIDS NEAR HOODSPORTWAMASON7622022-07-03 20:00:003.764630
58NSSW1SEWSF NOOKSACK - AT SAXON BRIDGEWAWHATCOM3802022-07-03 20:00:001.96720
59FOSO3PQRSOUTH SANTIAM - FOSTER DAMORLINN5502022-07-03 20:00:00635.86 0
60LYDM8MSOKOOTENAI - LIBBY DAMMTLINCOLN24592022-07-03 20:00:002437.37 0
61DONO3BOIDONNER UND BLITZEN - NR FRENCHGLENORHARNEY42602022-07-03 20:00:002.24950
62WANW1OTXCOLUMBIA - WANAPUM DAMWAGRANT5702022-07-03 20:00:00570.41 0
63JHNO3PDTJOHN DAY - NEAR JOHN DAYORGRANT31312022-07-03 20:00:003.74890
64PACW1SEWCOWLITZ - AT PACKWOODWALEWIS10482022-07-03 20:00:002.4924980
65HHDW1SEWGREEN - HOWARD HANSON DAMWAKING12062022-07-03 20:00:001166.82 0
66KBDM8MSOKOOTENAI - BELOW LIBBY DAMMTLINCOLN21002022-07-03 20:00:0021.02129750
67PDTO3PDTUMATILLA - AT PENDLETONORUMATILLA10502022-07-03 20:00:005.032510
68SNAW1SEWSNOHOMISH - AT SNOHOMISHWASNOHOMISH352022-07-03 20:00:0011.32180000
69REEO3PQRUMPQUA - AT REEDSPORTORDOUGLAS02022-07-03 20:00:007.26 0
70JDAO3PDTCOLUMBIA - JOHN DAY DAMORSHERMAN2682022-07-03 20:00:00263.23 0
71IMNO3PDTIMNAHA - AT IMNAHAORWALLOWA19682022-07-03 20:00:003.610120
72IHDW1PDTSNAKE - ICE HARBOR DAMWAFRANKLIN3682022-07-03 20:00:00438.15 0
73UNDW1PDTWHITE SALMON - NEAR UNDERWOODWAKLICKITAT1132022-07-03 20:00:004.1612430
74RISW1OTXCOLUMBIA - BLO ROCK ISLAND DAMWADOUGLAS6092022-07-03 20:00:00612.52 0
75RIGI1MSOLITTLE SALMON - AT RIGGINSIDIDAHO17602022-07-03 20:00:004.249610
76SWRM8MSOSWAN - NEAR BIGFORKMTLAKE30632022-07-03 20:00:004.6733860
77LGSW1UnkSNAKE - LITTLE GOOSE DAMWAWHITMAN7022022-07-03 20:00:00634.38 0
78CENW1SEWCHEHALIS - NEAR CENTRALIAWALEWIS1852022-07-03 20:00:00152.775070
79CIYW1SEWCISPUS - NEAR RANDLEWALEWIS12602022-07-03 20:00:0015.1912380
80CGMW1SEWCHEHALIS - NEAR GRAND MOUNDWATHURSTON1242022-07-03 20:00:00130.436760
81LGRW1SEWNISQUALLY - AT LA GRANDEWAPIERCE4902022-07-03 20:00:0011200
82LERI1MSOLEMHI - NEAR LEMHIIDLEMHI49602022-07-03 20:00:004.363350
83LGDW1OTXSNAKE - LOWER GRANITE DAMWAWHITMAN7382022-07-03 20:00:00736.13 0
84PRII1OTXPOTLATCH - BELOW LITTLE POTLATCHIDNEZ PERCE02022-07-03 20:00:004.69950
85WSRI1BOIWEISER - NEAR WEISERIDWASHINGTON22062022-07-03 20:00:004.352660
86LNDW1SEWCEDAR - NEAR LANDSBURGWAKING5662022-07-03 20:00:001.584690
87CHJW1OTXCOLUMBIA - CHIEF JOSEPH DAMWADOUGLAS8202022-07-03 20:00:00954 0
88LOCI1MSOLOCHSA - NEAR LOWELLIDIDAHO14532022-07-03 20:00:004.9851750
89GCDW1OTXCOLUMBIA - GRAND COULEE DAMWAGRANT17002022-07-03 20:00:001285.8 0
90LOPO3PQRMF WILLAMETTE - LOOKOUT POINT DAMORLANE7122022-07-03 20:00:00912.74 0
91PRWW1OTXCOLUMBIA - PRIEST RAPIDS DAMWAGRANT4602022-07-03 20:00:00487.18 0
92DGGI1PIHTETON - AB S. LEIGH CR NR DRIGGSIDTETON59532022-07-03 20:00:002.498030
93LMNW1UnkSNAKE - LOWER MONUMENTAL DAMWAWALLA WALLA4592022-07-03 20:00:00538.1 0
94KIOW1PDTYAKIMA - AT KIONAWAYAKIMA4542022-07-03 20:00:004.2623090
95WEII1BOISNAKE - AT WEISERIDWASHINGTON20862022-07-03 20:00:003.0179960
96WELW1OTXCOLUMBIA - WELLS DAMWADOUGLAS7812022-07-03 20:00:00779.24 0
97RDLO3MFRCOW CREEK - NEAR RIDDLEORDOUGLAS7232022-07-03 20:00:001.381010
98CANO3PQRMOLALLA - NEAR CANBYORCLACKAMAS942022-07-03 20:00:0011.235920
99BWKI1PIHBIG WOOD - NEAR KETCHUMIDBLAINE62402022-07-03 20:00:005.882640
100POWO3MFRSF COQUILLE - AT POWERSORCOOS2202022-07-03 20:00:000.971060
101MPLO3PQRSIUSLAW - NEAR MAPLETONORLANE412022-07-03 20:00:004.246770
102ARDW1OTXENTIAT - NEAR ARDENVOIRWACHELAN15612022-07-03 20:00:004.2312880
103MORW1SEWCEDAR - CHESTER MORSE LAKEWAKING15602022-07-03 20:00:001563.71 0
104PITW1PDTKLICKITAT - NEAR PITTWAKLICKITAT2892022-07-03 20:00:004.9416760
105MCMO3PQRS YAMHILL - AT MCMINNVILLEORYAMHILL622022-07-03 20:00:0011.511470
106TIDO3PQRALSEA - NEAR TIDEWATERORLINCOLN482022-07-03 20:00:002.685120
107CTAW1SEWSKOOKUMCHUCK - AT CENTRALIAWALEWIS1002022-07-03 20:00:00177.73160
108GSVO3MFRCOW CREEK - GALESVILLE RESERVOIRORDOUGLAS18812022-07-03 20:00:001835.22 0
109TLRW1SEWSF TOLT - TOLT RESERVOIRWAKING17652022-07-03 20:00:001763.17 0
110MCMW1SEWMINERAL CREEK - NEAR MINERALWALEWIS13402022-07-03 20:00:0091260
111MKDO3PDTMCKAY CREEK - PENDLETONORUMATILLA13332022-07-03 20:00:001316.89 0
112ALFW1OTXPEND OREILLE - ALBENI FALLS DAMWAPEND OREILLE20502022-07-03 20:00:00547000
113MFNW1SEWMF NOOKSACK - NEAR DEMINGWAWHATCOM5802022-07-03 20:00:004.155790
114NISW1SEWNISQUALLY - NEAR NATIONALWAPIERCE14502022-07-03 20:00:005.019190
115FFXW1SEWCARBON - NEAR FAIRFAXWAPIERCE12132022-07-03 20:00:007.188170
116ELWW1SEWELWHA - AT MCDONALD BRIDGE NEAR PORT ANGELESWACLALLAM2002022-07-03 20:00:0010.9320540
117SELI1MSOSELWAY - NEAR LOWELLIDIDAHO15402022-07-03 20:00:006.5974750
118CWMO3MFRCOW CREEK - NEAR GLENDALEORDOUGLAS10102022-07-03 20:00:000.45370
119GPRO3PQRMIDDLE SANTIAM - GREEN PETER DAMORLINN10152022-07-03 20:00:001009.59 0
120SMNI1MSOSALMON - AT SALMONIDLEMHI39112022-07-03 20:00:004.1137720
121TDAO3PDTCOLUMBIA - THE DALLES DAMORWASCO802022-07-03 20:00:00158.63 0
122BERO3BOIMALHEUR - AGENCY VALLEY DAMORMALHEUR33052022-07-03 20:15:003309.86 0
123TEAI1PIHTETON - NEAR ST. ANTHONYIDFREMONT49702022-07-03 20:15:003.2110810
124NFNW1SEWNF NOOKSACK - NEAR GLACIERWAWHATCOM12452022-07-03 20:15:004.5221170
125SRMO3PQRSANDY - NEAR MARMOTORCLACKAMAS7302022-07-03 20:15:00691.4910320
126CORO3PQRWILLAMETTE - AT CORVALLISORBENTON1922022-07-03 20:15:0012.75101630
127BEUO3BOINF MALHEUR - AT BEULAHORMALHEUR32702022-07-03 20:15:003.333400
128PRDW1OTXCOLUMBIA - BLO PRIEST RAPIDS DAMWAGRANT3882022-07-03 20:15:0021.431977910
129WFBM8MSOWF BITTERROOT - NEAR CONNERMTRAVALLI45812022-07-03 20:15:002.274730
130SATI1OTXST MARIES - NEAR SANTAIDBENEWAH21722022-07-03 20:15:004.972890
131EKTO3MFRUMPQUA - NEAR ELKTONORDOUGLAS902022-07-03 20:15:004.0223840
132BFEI1OTXKOOTENAI - AT BONNERS FERRYIDBOUNDARY17002022-07-03 20:15:0053.58 0
133RNTW1SEWCEDAR - AT RENTONWAKING152022-07-03 20:15:008.535110
134WARO3BOIMALHEUR - BLO WARM SPRS RES NR RIVERSIDEORMALHEUR33052022-07-03 20:15:004.823520
135SNQW1SEWNF SNOQUALMIE - NEAR SNOQUALMIE FALLSWAKING11302022-07-03 20:15:003.715840
136CTLI1OTXCOEUR D ALENE - AT CATALDOIDKOOTENAI21002022-07-03 20:15:0034.4821500
137MYKO3PDTMCKAY CREEK - NEAR PILOT ROCKORUMATILLA13432022-07-03 20:15:002.83420
138SNAI1PIHSNAKE - AT BLACKFOOTIDBINGHAM44902022-07-03 20:15:004.2412510
139FSSO3PQRNEHALEM - FOSSORTILLAMOOK332022-07-03 20:15:002.974820
140TANW1SEWMF SNOQUALMIE - NEAR TANNERWAKING7802022-07-03 20:15:004.4118580
141PATW1OTXMETHOW - NEAR PATEROSWAOKANOGAN9002022-07-03 20:15:005.5448990
142TOPI1PIHPORTNEUF - AT TOPAZIDBANNOCK49182022-07-03 20:15:002.841470
143ISSW1SEWISSAQUAH CREEK - NEAR MOUTHWAKING362022-07-03 20:15:004.48720
144CRNW1SEWSNOQUALMIE - NEAR CARNATIONWAKING602022-07-03 20:15:0047.2533300
145GIBO3PDTUMATILLA - NEAR GIBBONORUMATILLA18552022-07-03 20:15:003.051170
146TOLW1SEWTOLT - NEAR CARNATIONWAKING3482022-07-03 20:15:005.294110
147LEOI1OTXKOOTENAI - AT LEONIAIDBOUNDARY17902022-07-03 20:15:0015.65170610
148ORCO3PQRWILLAMETTE - BL FALLS AT OR CITYORCLACKAMAS102022-07-03 20:15:009.64 0
149BFTI1PIHSNAKE - NEAR BLACKFOOTIDBINGHAM44002022-07-03 20:15:001.9911390
150TONW1OTXOKANOGAN - NEAR TONASKETWAOKANOGAN8612022-07-03 20:15:0010.9994420
151PRCI1OTXNF COEUR D ALENE - NEAR PRICHARDIDSHOSHONE24852022-07-03 20:15:002.145420
152PRCM8MSOPROSPECT CREEK - AT THOMPSON FALLSMTSANDERS23822022-07-03 20:15:002.493680
153ORFI1MSOCLEARWATER - AT OROFINOIDCLEARWATER9912022-07-03 20:15:007.64148730
154DARM8MSOBITTERROOT - NEAR DARBYMTRAVALLI39422022-07-03 20:15:003.6619980
155PWDO3BOIPOWDER - AT BAKERORBAKER34402022-07-03 20:15:002.341090
156STII1BOISF CLEARWATER - AT STITESIDIDAHO13002022-07-03 20:15:004.4416720
157LAUW1OTXKETTLE - AT LAURIERWAFERRY14262022-07-03 20:15:007.970400
158WCHW1SEWSAUK - ABOVE WHITE CHUCKWASNOHOMISH9302022-07-03 20:15:004.8126110
159DRMM8MSOCLARK FORK - NR DRUMMONDMTGRANITE33792022-07-03 20:15:003.36690
160SIFI1PIHSNAKE - AB EAGLE ROCK NR IDAHO FALLSIDBONNEVILLE47302022-07-03 20:15:007.3253380
161PRTI1OTXPRIEST - NEAR PRIEST RIVERIDBONNER20902022-07-03 20:15:004.6138250
162GARW1SEWSF SNOQUALMIE - NEAR GARCIAWAKING14482022-07-03 20:15:0011.714330
163WRMO3PDTMALHEUR - WARM SPRINGS DAMORMALHEUR33902022-07-03 20:15:003350.94 0
164WSNO3MFRS UMPQUA - NEAR WINSTONORDOUGLAS4632022-07-03 20:15:004.435590
165DRSW1SEWDUNGENESS - NEAR SEQUIMWACLALLAM5692022-07-03 20:15:003.96240
166LUCI1BOIBOISE - LUCKY PEAK DAMIDADA28402022-07-03 20:15:003053.82 0
167ANAW1OTXSNAKE - NEAR ANATONEWAASOTIN8072022-07-03 20:15:007.67370810
168CHEI1PIHFALL RIVER - NEAR CHESTERIDFREMONT50522022-07-03 20:15:002.334840
169MROW1SEWSNOHOMISH - NEAR MONROEWASNOHOMISH132022-07-03 20:15:004.35108730
170PULW1OTXSF PALOUSE - AT PULLMANWAWHITMAN23262022-07-03 20:15:002.04630
171GFLW1SEWSF STILLAGUAMISH - NEAR GRANITE FALLSWASNOHOMISH3102022-07-03 20:15:005.248900
172SATW1SEWSATSOP - NEAR SATSOPWAGRAYS HARBOR212022-07-03 20:15:0028.977280
173GVZW4RIWGROS VENTRE - AT ZENITHWYTETON62602022-07-03 20:15:0018.9512170
174MFDO3MFRBEAR CREEK - AT MEDFORDORJACKSON13422022-07-03 20:15:002.64350
175MFPI1BOIMF PAYETTE - NEAR CROUCHIDBOISE30402022-07-03 20:15:006.33950
176PESW1OTXWENATCHEE - AT PESHASTINWACHELAN10282022-07-03 20:15:007.4590110
177BWMI1PIHBIG WOOD - BELOW MAGIC DAM NEAR RICHFIELDIDBLAINE46622022-07-03 20:15:004.7910390
178REXI1PIHHENRYS FORK - AT REXBURGIDMADISON48062022-07-03 20:15:003.7713600
179WLAO3PQRS YAMHILL - NEAR WILLAMINAORPOLK2362022-07-03 20:15:002.311470
180LGNO3PDTGRANDE RONDE - NEAR PERRYORUNION29502022-07-03 20:15:001.821820
181FRYW1OTXKETTLE - NEAR FERRYWAFERRY18372022-07-03 20:15:0013.0735960
182ARGW1SEWNF STILLAGUAMISH - NEAR ARLINGTONWASNOHOMISH892022-07-03 20:15:002.9811190
183UMTW1PDTYAKIMA - AT UMTANUMWAKITTITAS13002022-07-03 20:15:0032.2930440
184SWAI1BOISNAKE - BELOW SWAN FALLSIDADA22712022-07-03 20:17:0018.4943690
185KTFW1OTXCOLVILLE - AT KETTLE FALLSWASTEVENS14002022-07-03 20:20:006.543780
186MYPO3MFRSF COQUILLE - AT MYRTLE POINTORCOOS602022-07-03 20:20:004.753440
187CHTO3MFRCHETCO - NEAR BROOKINGSORCURRY502022-07-03 20:30:00-0.164740
188WNRO3MFRN UMPQUA - AT WINCHESTERORDOUGLAS3722022-07-03 20:30:002.9718490
189CLDI1OTXST JOE - AT CALDERIDSHOSHONE20962022-07-03 20:30:007.8829170
190CASW1PQRCOWLITZ - AT CASTLE ROCKWACOWLITZ202022-07-03 20:30:0034.785740
191CAMI1BOIWEISER - NEAR CAMBRIDGEIDWASHINGTON26602022-07-03 20:30:003.172020
192PRLI1BOISF PAYETTE - AT LOWMANIDBOISE37902022-07-03 20:30:004.7317170
193PRPI1BOIPAYETTE - NEAR PAYETTEIDPAYETTE21382022-07-03 20:30:006.0633010
194SNYI1BOISNAKE - AT NYSSAIDCANYON51702022-07-03 20:30:004.954550
195SILO3PQRSILETZ - AT SILETZORLINCOLN1022022-07-03 20:30:003.344600
196SJMI1OTXST JOE - AT ST MARIESIDBENEWAH21002022-07-03 20:30:0028.13 0
197SKBW1SEWNF SKOKOMISH - NEAR LOWER CUSHMAN DAM NEAR POTLATCHWAMASON3282022-07-03 20:30:001.931930
198DOTW1SEWCHEHALIS - NEAR DOTYWALEWIS3022022-07-03 20:30:00306.871590
199SERO3PDTJOHN DAY - AT SERVICE CKORWHEELER16322022-07-03 20:30:003.812020
200DLGM8MSOCLARK FORK - AT DEER LODGEMTPOWELL45002022-07-03 20:30:002.93840
201SHAW1SEWBAKER - AT CONCRETEWASKAGIT1902022-07-03 20:30:005.8664430
202CALW1SEWCALAWAH - NEAR FORKSWACLALLAM2102022-07-03 20:30:003.242890
203SLTW1SEWSULTAN - NEAR SULTANWASNOHOMISH2902022-07-03 20:30:005.746120
204ELKO3MFRELK CREEK - NEAR TRAILORJACKSON14552022-07-03 20:30:002.79380
205SMRW1SEWSAMISH - NEAR BURLINGTONWASKAGIT02022-07-03 20:30:004.68830
206MAYW1SEWCOWLITZ - BELOW MAYFIELD DAMWALEWIS2272022-07-03 20:30:0012.0760470
207COTO3PQRCOAST FORK WILLAMETTE - COTTAGE GROVE DAMORLANE8002022-07-03 20:30:003.02630
208COKW1SEWCOWLITZ - NEAR KOSMOSWALEWIS7802022-07-03 20:30:0067800
209MADO3BOIMALHEUR - NEAR DREWSEYORHARNEY34792022-07-03 20:30:002.64340
210SCRO3MFRSTEAMBOAT CREEK - NEAR GLIDEORDOUGLAS11292022-07-03 20:30:001.032070
211SALW4RIWSALT - ABV PALISADES RES NR ETNAWYLINCOLN56762022-07-03 20:30:002.216320
212DEEO3MFRDEER CREEK - NEAR ROSEBURGORDOUGLAS6902022-07-03 20:30:002.3620
213TCHW1PDTWALLA WALLA - NEAR TOUCHETWAWALLA WALLA4052022-07-03 20:30:003.93010
214GLBW1SEWSKYKOMISH - NEAR GOLD BARWASNOHOMISH2092022-07-03 20:30:008.4266210
215SYCO3PQRJOHNSON CREEK - AT SYCAMOREORMULTNOMAH2282022-07-03 20:30:001.3880
216MORI1BOIMORES CREEK - NR ARROWROCK DAMIDADA31202022-07-03 20:30:002.631560
217TILO3MFRS UMPQUA - AT TILLERORDOUGLAS10402022-07-03 20:30:001.812980
218NASW1PQRNASELLE - NEAR NASELLEWAPACIFIC242022-07-03 20:30:004.541310
219MVEW1SEWSKAGIT - NEAR MT VERNONWASKAGIT02022-07-03 20:30:0021.68387421
220GREW4RIWGREYS - AB RES NR ALPINEWYLINCOLN57202022-07-03 20:30:002.7811780
221STHW1OTXSTEHEKIN - AT STEHEKINWACHELAN10992022-07-03 20:30:0022.4556573
222FLGW4RIWSNAKE - AB JACKSON L AT FLAGG RWYTETON68022022-07-03 20:30:003.8710600
223AGNO3MFRROGUE - NEAR AGNESORCURRY1132022-07-03 20:30:003.9337450
224SQUW1SEWSNOQUALMIE - NEAR SNOQUALMIEWAKING1202022-07-03 20:30:006.2231720
225ALPW4RIWSNAKE - NEAR ALPINEWYLINCOLN56842022-07-03 20:30:006.1681230
226FRMO3PQRTUALATIN - AT FARMINGTONORWASHINGTON1002022-07-03 20:30:005.223120
227MONO3PDTNF JOHN DAY - AT MONUMENTORGRANT19602022-07-03 20:30:004.269480
228ARAI1BOISF BOISE - ANDERSON RANCH DAMIDELMORE38802022-07-03 20:30:004192.66 0
229KERM8MSOFLATHEAD - SELI’Š KSANKA QLISPE’ DAMMTLAKE27302022-07-03 20:30:002893.02 0
230AMFI1PIHSNAKE - AT AMERICAN FALLS DAMIDPOWER42122022-07-03 20:30:006.39121470
231TLMO3PQRWILSON - NEAR TILLAMOOKORTILLAMOOK422022-07-03 20:30:003.942600
232BDDI1BOIBOISE - BELOW DIV DAMIDADA28002022-07-03 20:30:008.322820
233VALO3BOIMALHEUR - NEAR VALEORMALHEUR22202022-07-03 20:30:009.4400
234BRFI1BOISF BOISE - NR FEATHERVILLEIDELMORE42202022-07-03 20:30:002.758650
235OWYO3BOIOWYHEE - OWYHEE DAMORMALHEUR24002022-07-03 20:30:001.771570
236OGCN2LKNOWYHEE - NR GOLD CKNVELKO61192022-07-03 20:30:001.78970
237UMAO3PDTUMATILLA - NEAR UMATILLAORUMATILLA3302022-07-03 20:30:002.651510
238PERM8MSOFLATHEAD - AT PERMAMTSANDERS25692022-07-03 20:30:0016.55344770
239BTSI1BOIBOISE - NR TWIN SPRINGSIDADA32562022-07-03 20:30:007.6617300
240PACW4RIWPACIFIC CREEK - AT MORANWYTETON67202022-07-03 20:30:005.463030
241JKSW4RIWSNAKE - NEAR JACKSONWYTETON59502022-07-03 20:30:004.5266000
242PARI1BOIBOISE - NEAR PARMAIDCANYON21962022-07-03 20:30:008.368090
243PALI1PIHSNAKE - NEAR IRWINIDBONNEVILLE53532022-07-03 20:30:008.38106770
244NRKW1SEWNOOKSACK - AT CEDARVILLEWAWHATCOM02022-07-03 20:30:00141.1942190
245NITW1OTXSIMILKAMEEN - NEAR NIGHTHAWKWAOKANOGAN11382022-07-03 20:30:007.6168000
246HCDI1PDTSNAKE - AT HELLS CANYON DAMIDADAMS14002022-07-03 20:30:0063.7594830
247TNAW1PDTTEANAWAY - BELOW FORKSWAKITTITAS23002022-07-03 20:30:0011.272760
248HODO3PQRHOOD - NEAR TUCKER BRIDGEORHOOD RIVER3832022-07-03 20:30:003.997320
249TRBO3PQRMCKENZIE - BELOW TRAIL BRIDGE DAMORLINN19802022-07-03 20:30:006.748870
250BFKW4RIWBUFFALO FK - AB LAVA CR NR MORANWYTETON67732022-07-03 20:30:003.6516120
251HEII1PIHSNAKE - NEAR HEISEIDBONNEVILLE50152022-07-03 20:30:005.48110531
252HLKW1PDTYAKIMA - NEAR HORLICKWAKITTITAS17002022-07-03 20:30:0030.6126110
253TOTW1PQRTOUTLE - AT TOWER BRIDGEWACOWLITZ1702022-07-03 20:30:00121.612800
254HRSI1BOIPAYETTE - NEAR HORSESHOE BENDIDBOISE26262022-07-03 20:30:007.551330
255NSPW1SEWNF SKOKOMISH - NEAR POTLATCHWAMASON632022-07-03 20:30:003.032570
256NKSW1SEWNOOKSACK - AT FERNDALEWAWHATCOM52022-07-03 20:30:007.1843060
257HOPW1OTXPALOUSE - AT HOOPERWAWHITMAN10412022-07-03 20:30:004.933690
258PRTO3PQRWILLAMETTE - AT PORTLANDORMULTNOMAH22022-07-03 20:35:007.8 0
259CHAO3MFRCHARLESTON TIDEORCOOS02022-07-03 20:36:003.87 0
260LOPW1PQRCOLUMBIA - AT LONGVIEWWACOWLITZ12022-07-03 20:36:005.23 0
261KELW1PQRCOWLITZ - AT KELSOWACOWLITZ22022-07-03 20:36:2412.4 0
262LSMO3PQRLITTLE N SANTIAM - NEAR MEHAMAORMARION6552022-07-03 20:40:003.452390
263WTLO3PQRSOUTH SANTIAM - AT WATERLOOORLINN3702022-07-03 20:40:003.1911950
264SUVO3PQRLUCKIAMUTE - NEAR SUVERORPOLK1722022-07-03 20:41:004.572240
265SKAW1PQRCOLUMBIA - AT SKAMOKAWAWAWAHKIAKUM12022-07-03 20:42:001.38 0
266WILW1PQRWILLAPA - NEAR WILLAPAWAPACIFIC42022-07-03 20:45:003.91840
267WHBI1MSOSALMON - AT WHITEBIRDIDIDAHO14132022-07-03 20:45:0018.95210040
268WGCM8MSOMF FLATHEAD - NEAR WEST GLACIERMTFLATHEAD31292022-07-03 20:45:005.5496080
269PLNM8MSOCLARK FORK - NEAR PLAINSMTSANDERS24492022-07-03 20:45:0010.91497090
270PLOI1OTXPALOUSE - NEAR POTLATCHIDLATAH24552022-07-03 20:45:006.021060
271PORI1OTXKOOTENAI - AT PORTHILLIDBOUNDARY02022-07-03 20:45:0050.45 0
272WHRM8MSOWHITEFISH - NEAR KALISPELLMTFLATHEAD29702022-07-03 20:45:004.179281
273RAWW1SEWCOWLITZ - AT RANDLEWALEWIS8902022-07-03 20:45:007.7641870
274DSRW1SEWDESCHUTES - NEAR RAINIERWATHURSTON3492022-07-03 20:45:003.44890
275ANTI1PIHHENRYS FORK - AT ST. ANTHONYIDFREMONT49512022-07-03 20:45:003.5212580
276PUYW1SEWPUYALLUP - AT PUYALLUPWAPIERCE502022-07-03 20:45:0013.2644080
277CFMM8MSOFLATHEAD - AT COLUMBIA FALLSMTFLATHEAD29782022-07-03 20:45:0010.76292250
278WODI1PIHLITTLE WOOD - NEAR CAREYIDBLAINE49912022-07-03 20:45:002.742750
279ESTO3PQRCLACKAMAS - AT ESTACADAORCLACKAMAS2972022-07-03 20:45:0012.4816780
280THRM8MSOTHOMPSON - NEAR THOMPSON FALLSMTSANDERS24292022-07-03 20:45:003.666730
281AFRI1PIHSNAKE - AMERICAN FALLS RESERVOIRIDPOWER43702022-07-03 20:45:004337.06 0
282MYNO3MFRNF COQUILLE - NEAR MYRTLE POINTORCOOS22022-07-03 20:45:004.611620
283GRAO3MFRROGUE - AT GRANTS PASSORJOSEPHINE8802022-07-03 20:45:003.1330310
284GORW1SEWSKAGIT - AT NEWHALEMWAWHATCOM4022022-07-03 20:45:0087.23121180
285SFCM8MSOSF FLATHEAD - NR COLUMBIA FALLSMTFLATHEAD02022-07-03 20:45:0010.45109470
286AUBW1SEWGREEN - NEAR AUBURNWAKING702022-07-03 20:45:0058.0310030
287EMMI1BOIPAYETTE - NEAR EMMETTIDGEM24002022-07-03 20:45:004.4735790
288FCFM8MSONF FLATHEAD - NEAR COLUMBIA FALLSMTFLATHEAD31452022-07-03 20:45:006.2791170
289BCDW1SEWSKOOKUMCHUCK - NEAR BUCODAWATHURSTON1952022-07-03 20:45:00204.11980
290MNRO3PQRLONG TOM - AT MONROEORBENTON2712022-07-03 20:45:004.29620
291PIHI1PIHPORTNEUF - AT POCATELLOIDBANNOCK44202022-07-03 20:45:002.78790
292KRBO3MFRILLINOIS - AT KERBYORJOSEPHINE12102022-07-03 20:45:002.52700
293HAGW1OTXHANGMAN CREEK - AT SPOKANEWASPOKANE17172022-07-03 20:45:001.73700
294TILW1SEWTILTON - NEAR CINEBARWALEWIS6002022-07-03 20:45:003.122780
295FISM8MSOFISHER - NEAR LIBBYMTFLATHEAD21342022-07-03 20:45:004.326200
296THNW1SEWTHUNDER CREEK - NEAR NEWHALEMWAWHATCOM12202022-07-03 20:45:0010.7827890
297TLYO3PQRCLACKAMAS - THREE LYNXORCLACKAMAS11202022-07-03 20:45:001.6113440
298MCZO3PQRMCKENZIE - NEAR WALTERVILLEORLANE6002022-07-03 20:45:001.7116190
299HARO3PQRWILLAMETTE - AT HARRISBURGORLINN2882022-07-03 20:45:004.6299940
300SAKW1SEWSAUK - NEAR SAUKWASKAGIT2662022-07-03 20:45:006.9698610
301HCRO3PQRMF WILLAMETTE - HILLS CREEK DAMORLANE15442022-07-03 20:45:003.6410210
302RYGO3MFRROGUE - AT RAYGOLDORJACKSON11222022-07-03 20:45:002.6233380
303MKNW1SEWNISQUALLY - AT MCKENNAWATHURSTON2852022-07-03 20:45:002.2112490
304BEAO3PQRNESTUCCA - NEAR BEAVERORTILLAMOOK432022-07-03 20:45:005.023060
305MEHO3PQRNORTH SANTIAM - AT MEHAMAORMARION6022022-07-03 20:45:003.8722990
306TRYM8MSOYAAK - NEAR TROYMTLINCOLN18392022-07-03 20:45:004.9713040
307EGLO3MFRROGUE - NEAR EAGLE POINTORJACKSON12702022-07-03 20:45:004.3632350
308SPEW1SEWSOUTH PRAIRIE - AT SOUTH PRAIRIEWAPIERCE4302022-07-03 20:45:0024.661420
309SRLM8MSOSTILLWATER - NEAR LAWRENCE PARKMTFLATHEAD29532022-07-03 20:45:005.039810
310BIGI1BOIBOISE - AT GLENWOOD BRIDGEIDADA26002022-07-03 20:45:005.613370
311SRGM8MSOCLARK FORK - AT ST REGISMTMINERAL26002022-07-03 20:45:009.66128780
312BITM8MSOBITTERROOT - NEAR MISSOULAMTMISSOULA31102022-07-03 20:45:006.5154880
313MLBO3MFRBIG BUTTE CREEK - NEAR MCLEODORJACKSON15262022-07-03 20:45:002.67390
314JFFO3PQRSANTIAM - AT JEFFERSONORMARION2202022-07-03 20:45:003.4636190
315DRBI1BOIDEADWOOD - BELOW DEADWOOD RESIDVALLEY51922022-07-03 20:45:004.484500
316SPOW1OTXSPOKANE - AT SPOKANEWASPOKANE16962022-07-03 20:45:0019.846240
317SSUW1SEWSF SKOKOMISH - NEAR UNIONWAMASON1032022-07-03 20:45:000.542880
318MNSW1SEWWYNOOCHEE - NEAR MONTESANOWAGRAYS HARBOR402022-07-03 20:45:0027.63100
319SLMO3PQRWILLAMETTE - AT SALEMORMARION1062022-07-03 20:45:007.27139520
320ARWO3MFRAPPLEGATE - NEAR WILDERVILLEORJOSEPHINE9502022-07-03 20:45:002.372910
321MODO3PDTDESCHUTES - AT MOODY NR BIGGSORWASCO1672022-07-03 20:45:002.9247360
322STRM8MSOST. REGIS - NEAR ST. REGISMTMINERAL26452022-07-03 20:45:003.296350
323MIDI1BOIMF SALMON - MIDDLE FORK LODGEIDCUSTER44802022-07-03 20:45:003.3426210
324DETO3PQRNORTH SANTIAM - DETROIT DAMORMARION15702022-07-03 20:45:001558.334183240
325APRO3MFRAPPLEGATE - NEAR APPLEGATEORJACKSON12852022-07-03 20:45:001.843160
326DLLO3PQRTUALATIN - NEAR DILLEYORWASHINGTON1472022-07-03 20:45:0010.591580
327ENVI1OTXNF COEUR D ALENE - AT ENAVILLEIDSHOSHONE21002022-07-03 20:45:0059.3414680
328SNDO3PQRSANDY - SANDYORCLACKAMAS2402022-07-03 20:45:008.9816090
329ORTW1SEWPUYALLUP - NEAR ORTINGWAPIERCE3532022-07-03 20:45:005.828660
330VICM8MSOBITTERROOT - NEAR VICTORMTRAVALLI33302022-07-03 20:45:007.8638730
331CONW1SEWSKAGIT - NEAR CONCRETEWASKAGIT1302022-07-03 20:45:0023.15361691
332ISLI1PIHHENRYS FORK - NEAR ISLAND PARK DAMIDFREMONT62252022-07-03 20:45:003.9310030
333VIDO3PQRMCKENZIE - NEAR VIDAORLANE8562022-07-03 20:45:001.7729920
334COQO3MFRCOQUILLE - AT COQUILLEORCOOS232022-07-03 20:45:004.32 0
335MLKW1PDTMILL CREEK - NR WALLA WALLAWAWALLA WALLA19962022-07-03 20:45:0013.631070
336OKMW1OTXOKANOGAN - AT MALOTTWAOKANOGAN7832022-07-03 20:45:008.7998190
337BONM8MSOBLACKFOOT - NEAR BONNERMTMISSOULA33452022-07-03 20:45:004.2727700
338SRMW1SEWSKAGIT - AT MARBLEMOUNTWASKAGIT3052022-07-03 20:45:006.89170760
339SHYI1PIHSNAKE - NEAR SHELLEYIDBINGHAM45992022-07-03 20:46:006.4547160
340VAPW1PQRCOLUMBIA - AT VANCOUVER POPWACLARK22022-07-03 20:48:007.77 0
341SHNO3PQRCOLUMBIA - AT ST HELENSORCOLUMBIA12022-07-03 20:48:006.56 0
342ASTO3PQRTONGUE POINT TIDE GAGEORCLATSOP22022-07-03 20:48:002.73 0
343WAUO3PQRCOLUMBIA - AT WAUNAORCLATSOP12022-07-03 20:48:002.11 0
344GOSO3PQRCOAST FORK WILLAMETTE - NEAR GOSHENORLANE4742022-07-03 20:50:0024540
345FRNO3PQRLONG TOM - FERN RIDGE DAMORLANE3742022-07-03 20:50:001.83730
346FPOM8MSOFLATHEAD - NEAR POLSONMTLAKE26932022-07-03 20:50:0012.95345190
347WSLO3PQRTUALATIN - AT WEST LINNORCLACKAMAS852022-07-03 20:50:003.445170
348CBAO3PQRCOLUMBIA - AT PORT WESTWARD NR QUINCYORCOLUMBIA-12022-07-03 20:50:003.18 0
349EUGO3PQRWILLAMETTE - AT EUGENEORLANE3902022-07-03 20:50:0011.8964380
350APLO3MFRAPPLEGATE - APPLEGATE RESERVOIRORJACKSON19902022-07-03 20:50:001974.54 0
351JASO3PQRMF WILLAMETTE - AT JASPERORLANE5132022-07-03 20:50:005.4265940
352DORO3PQRROW - DORENA DAMORLANE8202022-07-03 20:50:002.522900
353OCUO3PQRWILLAMETTE - AB FALLS AT OR CITYORCLACKAMAS502022-07-03 20:52:0054.67 0
354ARLW1SEWSTILLAGUAMISH - NEAR ARLINGTONWASNOHOMISH652022-07-03 20:55:002.6229440
355BUSO3BOISILVIES - NEAR BURNSORHARNEY41952022-07-03 21:00:000.74180
356BELM8MSOCLARK FORK - BELOW MISSOULAMTMISSOULA30842022-07-03 21:00:004.63101520
357ABOM8MSOCLARK FORK - ABOVE MISSOULAMTMISSOULA31982022-07-03 21:00:004.446700
358AURO3PQRPUDDING - AT AURORAORMARION722022-07-03 21:00:007.315030
359BCLO3PQRNORTH SANTIAM - AT NIAGARAORLINN10942022-07-03 21:00:003.4116410
360ALBO3PQRWILLAMETTE - AT ALBANYORLINN1672022-07-03 21:00:005.38100400
361BLUO3PQRBLUE - BLUE RESERVOIRORLANE13572022-07-03 21:00:003.131330
362CLEW1PDTCLE ELUM - NEAR ROSLYNWAKITTITAS2240 0
363BUMW1PDTBUMPING - BELOW BUMPING DAMWAYAKIMA34411.2 0
364RIMW1PDTTIETON - AT TIETON DAMWAYAKIMA2926 0
365MAKI1PIHBIG LOST - BLO MACKAY RESIDCUSTER594600
366ARKI1BOIBOISE - ARROWROCK DAMIDELMORE3275 0
367OWCO3BOIOWYHEE CANAL AT OWYHEE DAMORMALHEUR2500 0
368KEEW1PDTYAKIMA - NEAR MARTINWAKITTITAS2479 0
369KACW1PDTKACHESS - NEAR EASTONWAKITTITAS2269 0
370SHDW1SEWBAKER - LAKE SHANNONWASKAGIT156 0
371WLSO3PQRWILLAMETTE - AT WILSONVILLEORCLACKAMAS5031000
csv  json














Loading Hydrograph...